Weather History for Riverton, WY

Change the Weather History Date:

Friday, August 2, 2013

  Actual Average Record
Temperature  
Mean Temperature 75 °F 73 °F  
Max Temperature 90 °F 89 °F 95 °F (2008)
Min Temperature 60 °F 57 °F 48 °F (2006)
Degree Days  
Heating Degree Days 0 0  
Month to date heating degree days 0 0  
Since 1 June heating degree days 52 131  
Since 1 July heating degree days 0 12  
Cooling Degree Days 10 8  
Month to date cooling degree days 20 16  
Year to date cooling degree days 477 311  
Since 1 June cooling degree days 464 302  
Growing Degree Days 24 (Base 50)    
Moisture  
Dew Point 38 °F    
Average Humidity 39    
Maximum Humidity 72    
Minimum Humidity 6    
Precipitation  
Precipitation 0.02 in 0.01 in 0.19 in (1998)
Month to date precipitation 0.02 0.03  
Year to date precipitation 4.05 6.28  
Snow  
Snow 0.00 in - - ()
Month to date snowfall 0.0  
Since 1 June snowfall 0.0  
Since 1 July snowfall 0.0  
Snow Depth 0.00 in    
Sea Level Pressure  
Sea Level Pressure 29.81 in    
Wind  
Wind Speed 8 mph (NW)    
Max Wind Speed 25 mph    
Max Gust Speed 33 mph    
Visibility 10 miles    
Events Rain , Thunderstorm    
T = Trace of Precipitation, MM = Missing Value Source: NWS Daily Summary

Daily Weather History Graph

Daily Weather History Graph

Search for Another Location

Airport:

Trip Planner

Search our weather history database for the weather conditions in past years. The results will help you decide how hot, cold, wet, or windy it might be!

Date:

Astronomy

Aug. 02, 2013 Rise Set
Actual Time 6:05 AM MDT 8:33 PM MDT
Civil Twilight 5:33 AM MDT 9:05 PM MDT
Nautical Twilight 4:53 AM MDT 9:45 PM MDT
Astronomical Twilight 4:08 AM MDT 10:30 PM MDT
Moon 2:28 AM MDT (8/2) 5:34 PM MDT (8/2)
Length of Visible Light 15h 31m
Length of Day
14h 27m
Waning Crescent, 15% of the Moon is Illuminated
Aug 2
Waning Crescent
Aug 6
New
Aug 14
First Quarter
Aug 20
Full
Aug 28
Last Quarter

Hourly Weather History & Observations

Time (MDT) Temp. Dew Point Humidity Pressure Visibility Wind Dir Wind Speed Gust Speed Precip Events Conditions
12:53 AM 73.0 °F 41.0 °F 31% 29.70 in 10.0 mi SSW 10.4 mph - N/A   Clear
1:53 AM 77.0 °F 39.0 °F 25% 29.73 in 10.0 mi SSW 10.4 mph 31.1 mph 0.00 in Rain , Thunderstorm Light Rain
2:53 AM 64.9 °F 51.1 °F 61% 29.75 in 10.0 mi North 3.5 mph - 0.02 in Thunderstorm Overcast
3:02 AM 66.2 °F 51.8 °F 60% 29.99 in 10.0 mi ESE 5.8 mph - N/A   Overcast
3:53 AM 63.0 °F 51.1 °F 65% 29.75 in 10.0 mi NE 3.5 mph - N/A   Clear
4:53 AM 61.0 °F 52.0 °F 72% 29.76 in 10.0 mi NNE 8.1 mph - N/A   Clear
5:53 AM 61.0 °F 51.1 °F 70% 29.77 in 10.0 mi NNE 10.4 mph - N/A   Clear
6:53 AM 60.1 °F 51.1 °F 72% 29.81 in 10.0 mi NNW 10.4 mph - N/A   Clear
7:53 AM 64.9 °F 52.0 °F 63% 29.83 in 10.0 mi North 5.8 mph - N/A   Clear
8:53 AM 68.0 °F 51.1 °F 55% 29.84 in 10.0 mi Variable 3.5 mph - N/A   Clear
9:53 AM 71.1 °F 52.0 °F 51% 29.85 in 10.0 mi SE 3.5 mph - N/A   Clear
10:53 AM 75.0 °F 50.0 °F 41% 29.85 in 10.0 mi Variable 5.8 mph - N/A   Clear
11:53 AM 78.1 °F 44.1 °F 30% 29.83 in 10.0 mi Variable 4.6 mph - N/A   Clear
12:53 PM 81.0 °F 41.0 °F 24% 29.82 in 10.0 mi Calm Calm - N/A   Clear
1:53 PM 84.0 °F 34.0 °F 17% 29.78 in 10.0 mi Variable 3.5 mph - N/A   Clear
2:53 PM 89.1 °F 33.1 °F 14% 29.79 in 10.0 mi Calm Calm - N/A   Partly Cloudy
3:53 PM 89.1 °F 15.1 °F 6% 29.79 in 10.0 mi West 18.4 mph 27.6 mph N/A   Clear
4:53 PM 88.0 °F 15.1 °F 7% 29.79 in 10.0 mi West 12.7 mph 21.9 mph N/A   Clear
5:53 PM 87.1 °F 16.0 °F 7% 29.78 in 10.0 mi SW 12.7 mph 25.3 mph N/A   Clear
6:53 PM 86.0 °F 19.0 °F 8% 29.80 in 10.0 mi West 6.9 mph - N/A   Clear
7:53 PM 84.0 °F 19.0 °F 9% 29.79 in 10.0 mi WSW 5.8 mph - N/A   Clear
8:53 PM 78.1 °F 23.0 °F 13% 29.82 in 10.0 mi NNW 10.4 mph - N/A   Clear
9:53 PM 72.0 °F 24.1 °F 17% 29.85 in 10.0 mi NW 12.7 mph - N/A   Clear
10:53 PM 68.0 °F 28.9 °F 23% 29.87 in 10.0 mi NW 13.8 mph - N/A   Clear
11:53 PM 71.1 °F 34.0 °F 26% 29.88 in 10.0 mi NNE 11.5 mph - N/A   Clear